Jilin-1 GaoFen 03D 27 xing

operational
NORAD ID: 52444 Int'l Des: 2022-048 Owner: CGSTL Country: CN Constellation: jilin-1
LEOCIRCULARRETROGRADE

About Jilin-1 GaoFen 03D 27 xing

Description loading...

Live Position

Loading 3D Globe...

Upcoming Passes

Altitude History

Altitude vs Time

uPlot chart will show altitude changes over time

Two-Line Element Set

1 52444U 22048B 26062.13190069 .00074379 00000-0 10001-2 0 9994
2 52444 97.5642 168.1451 0004978 82.7953 277.3867 15.57629536212882
Epoch: Mar 3, 2026 • Age: 18 hours

Current Status

Altitude 405.5 km
Velocity 7.67 km/s
Sub-Earth Point -27.03°S, 94.14°E
Launch Date May 5, 2022
Age 3.8 years
Type earth observation

Technical Details

Classification Payload
Mass 42.00 kg
Dry Mass 42.00 kg
Total Mass 42.00 kg
Length 1.50 m
Diameter 1.00 m
Span 1.50 m
Shape Box
Manufacturer CGSTL
Bus Type JL-1
Phase Status In Orbit
Owner/State CGSTL/CN

Large Constellations

Loading constellations...